Date String (YYYY-MM-DD hh:mm:ss) UTC,Instrument flags,Ambient pressure (hPa),Sample flow (lpm),Bypass flow (lpm),Sample temperature (°C),Ambient temperature (°C),ASC tube jacket temperature (°C),LED temperature (°C),Box temperature (°C),Sample RH (%),Span deviation,Mass concentration (μg/m³),Mass concentration (μg/m³),Mass concentration (μg/m³)
DateTimeUTC,F1_M11,P_M11,Q1_M11,Q2_M11,T1_M11,T2_M11,T3_M11,T4_M11,T5_M11,U1_M11,ZSPAN_M11,X0_M11,X2_M11,X1_M11
2022-12-07 18:00:00,,0827.2,5.00,0.00,24.1,23.0,00.0,32.8,26.1,09.7,0000.0,0010.92,0004.53,0003.65
2022-12-07 18:01:00,,0827.2,5.00,0.00,24.1,23.0,00.0,32.9,26.1,10.0,0000.0,0011.00,0004.50,0003.63
2022-12-07 18:02:00,,0827.2,5.01,0.00,24.1,23.0,00.0,32.9,26.1,10.0,0000.0,0010.87,0004.51,0003.63
2022-12-07 18:03:00,,0827.2,5.00,0.00,24.2,23.0,00.0,32.9,26.1,10.0,0000.0,0011.03,0004.56,0003.64
2022-12-07 18:04:00,,0827.2,5.01,0.00,24.2,23.0,00.0,32.9,26.1,10.2,0000.0,0011.21,0004.55,0003.66
2022-12-07 18:05:00,,0827.2,5.00,0.00,24.2,23.0,00.0,32.9,26.1,10.1,0000.0,0011.89,0004.51,0003.66
2022-12-07 18:06:00,,0827.2,5.00,0.00,24.2,23.0,00.0,32.9,26.1,10.1,0000.0,0012.66,0004.56,0003.67
2022-12-07 18:07:00,,0827.1,4.99,0.00,24.2,23.0,00.0,32.9,26.1,10.1,0000.0,0012.51,0004.56,0003.69
2022-12-07 18:08:00,,0827.2,4.99,0.00,24.2,23.0,00.0,32.9,26.1,10.0,0000.0,0012.77,0004.57,0003.69
2022-12-07 18:09:00,,0827.2,5.00,0.00,24.2,23.0,00.0,32.9,26.1,10.0,0000.0,0012.85,0004.58,0003.71
2022-12-07 18:10:00,,0827.2,5.01,0.00,24.2,23.0,00.0,32.9,26.1,10.0,0000.0,0012.80,0004.63,0003.74
2022-12-07 18:11:00,,0827.2,5.01,0.00,24.2,23.0,00.0,32.9,26.1,09.9,0000.0,0012.24,0004.65,0003.76
2022-12-07 18:12:00,,0827.2,5.01,0.00,24.2,23.0,00.0,32.9,26.1,10.1,0000.0,0011.79,0004.62,0003.75
2022-12-07 18:13:00,,0827.2,4.99,0.00,24.2,23.1,00.0,32.9,26.1,10.2,0000.0,0012.13,0004.58,0003.73
2022-12-07 18:14:00,,0827.1,5.00,0.00,24.2,23.0,00.0,33.0,26.1,10.0,0000.0,0011.68,0004.52,0003.71
2022-12-07 18:15:00,,0827.2,4.99,0.00,24.2,23.0,00.0,33.0,26.1,10.1,0000.0,0011.37,0004.47,0003.68
2022-12-07 18:16:00,,0827.1,5.00,0.00,24.2,23.0,00.0,33.0,26.1,10.1,0000.0,0010.75,0004.45,0003.66
2022-12-07 18:17:00,,0827.0,5.00,0.00,24.2,23.0,00.0,33.0,26.1,10.1,0000.0,0010.02,0004.35,0003.63
2022-12-07 18:18:00,,0827.2,5.00,0.00,24.2,23.1,00.0,33.0,26.1,10.1,0000.0,0010.01,0004.32,0003.62
2022-12-07 18:19:00,,0827.0,5.01,0.00,24.2,23.1,00.0,33.0,26.1,10.0,0000.0,0009.89,0004.29,0003.60
2022-12-07 18:20:00,,0827.0,5.01,0.00,24.2,23.1,00.0,33.0,26.1,10.0,0000.0,0010.36,0004.27,0003.58
2022-12-07 18:21:00,,0827.0,5.00,0.00,24.3,23.1,00.0,33.0,26.1,09.9,0000.0,0010.42,0004.20,0003.56
2022-12-07 18:22:00,,0826.9,4.99,0.00,24.3,23.1,00.0,33.0,26.1,09.9,0000.0,0010.34,0004.16,0003.56
2022-12-07 18:23:00,,0826.8,5.00,0.00,24.3,23.2,00.0,33.0,26.1,10.1,0000.0,0010.63,0004.21,0003.56
2022-12-07 18:24:00,,0826.8,5.00,0.00,24.3,23.2,00.0,33.0,26.2,10.2,0000.0,0010.53,0004.25,0003.57
2022-12-07 18:25:00,,0827.2,5.00,0.00,24.3,23.2,00.0,33.0,26.2,10.2,0000.0,0010.77,0004.25,0003.58
2022-12-07 18:26:00,,0827.2,5.00,0.00,24.3,23.2,00.0,33.0,26.2,10.2,0000.0,0011.40,0004.27,0003.60
2022-12-07 18:27:00,,0827.0,4.99,0.00,24.3,23.2,00.0,33.1,26.2,10.2,0000.0,0011.28,0004.28,0003.59
2022-12-07 18:28:00,,0827.1,5.00,0.00,24.4,23.2,00.0,33.1,26.3,10.1,0000.0,0011.11,0004.27,0003.59
2022-12-07 18:29:00,,0827.0,5.00,0.00,24.4,23.2,00.0,33.1,26.2,10.1,0000.0,0011.46,0004.31,0003.59
2022-12-07 18:30:00,,0826.8,5.00,0.00,24.4,23.3,00.0,33.1,26.3,09.9,0000.0,0011.30,0004.28,0003.59
2022-12-07 18:31:00,,0826.8,5.00,0.00,24.4,23.3,00.0,33.1,26.3,09.9,0000.0,0010.81,0004.26,0003.57
2022-12-07 18:32:00,,0826.8,5.00,0.00,24.4,23.3,00.0,33.1,26.3,09.9,0000.0,0010.76,0004.30,0003.56
2022-12-07 18:33:00,,0826.7,5.01,0.00,24.4,23.3,00.0,33.1,26.3,10.0,0000.0,0011.29,0004.31,0003.55
2022-12-07 18:34:00,,0826.7,5.00,0.00,24.4,23.3,00.0,33.1,26.3,10.1,0000.0,0011.00,0004.27,0003.55
2022-12-07 18:35:00,,0826.7,5.00,0.00,24.4,23.3,00.0,33.2,26.3,10.1,0000.0,0010.68,0004.24,0003.55
2022-12-07 18:36:00,,0826.7,5.00,0.00,24.5,23.4,00.0,33.2,26.3,10.1,0000.0,0010.33,0004.24,0003.55
2022-12-07 18:37:00,,0826.7,5.00,0.00,24.5,23.4,00.0,33.2,26.3,10.2,0000.0,0010.05,0004.28,0003.56
2022-12-07 18:38:00,,0826.7,5.00,0.00,24.5,23.4,00.0,33.2,26.4,10.1,0000.0,0010.78,0004.25,0003.56
2022-12-07 18:39:00,,0826.7,4.99,0.00,24.5,23.4,00.0,33.2,26.4,10.1,0000.0,0010.73,0004.25,0003.57
2022-12-07 18:40:00,,0826.6,4.99,0.00,24.5,23.5,00.0,33.2,26.4,10.2,0000.0,0010.58,0004.24,0003.59
2022-12-07 18:41:00,,0826.7,5.00,0.00,24.5,23.5,00.0,33.2,26.4,10.2,0000.0,0010.89,0004.24,0003.60
2022-12-07 18:42:00,,0826.6,5.00,0.00,24.6,23.5,00.0,33.3,26.5,10.2,0000.0,0011.25,0004.28,0003.63
2022-12-07 18:43:00,,0826.6,5.00,0.00,24.6,23.5,00.0,33.3,26.5,10.2,0000.0,0011.28,0004.29,0003.66
2022-12-07 18:44:00,,0826.5,5.00,0.00,24.6,23.5,00.0,33.3,26.5,10.1,0000.0,0010.77,0004.31,0003.68
2022-12-07 18:45:00,,0826.5,5.00,0.00,24.6,23.5,00.0,33.3,26.5,09.9,0000.0,0010.60,0004.32,0003.69
2022-12-07 18:46:00,,0826.5,5.00,0.00,24.6,23.5,00.0,33.3,26.5,09.9,0000.0,0010.57,0004.35,0003.69
2022-12-07 18:47:00,,0826.5,5.00,0.00,24.6,23.5,00.0,33.3,26.5,10.0,0000.0,0011.32,0004.33,0003.67
2022-12-07 18:48:00,,0826.5,4.99,0.00,24.6,23.6,00.0,33.3,26.5,10.0,0000.0,0011.80,0004.29,0003.66
2022-12-07 18:49:00,,0826.5,4.99,0.00,24.6,23.6,00.0,33.4,26.5,10.1,0000.0,0011.17,0004.34,0003.66
2022-12-07 18:50:00,,0826.5,5.00,0.00,24.7,23.6,00.0,33.4,26.5,10.2,0000.0,0011.15,0004.37,0003.66
2022-12-07 18:51:00,,0826.5,5.00,0.00,24.7,23.6,00.0,33.4,26.6,10.1,0000.0,0010.95,0004.36,0003.65
2022-12-07 18:52:00,,0826.5,5.01,0.00,24.7,23.6,00.0,33.4,26.6,10.0,0000.0,0010.67,0004.35,0003.64
2022-12-07 18:53:00,,0826.5,5.01,0.00,24.7,23.6,00.0,33.4,26.6,10.1,0000.0,0010.31,0004.35,0003.64
2022-12-07 18:54:00,,0826.5,5.01,0.00,24.7,23.6,00.0,33.4,26.6,10.0,0000.0,0010.32,0004.36,0003.63
2022-12-07 18:55:00,,0826.5,4.99,0.00,24.7,23.6,00.0,33.4,26.6,10.0,0000.0,0010.17,0004.32,0003.62
2022-12-07 18:56:00,,0826.5,5.00,0.00,24.7,23.6,00.0,33.5,26.6,10.0,0000.0,0010.06,0004.30,0003.63
2022-12-07 18:57:00,,0826.5,4.99,0.00,24.7,23.6,00.0,33.5,26.6,10.2,0000.0,0010.04,0004.26,0003.62
2022-12-07 18:58:00,,0826.5,4.99,0.00,24.8,23.6,00.0,33.5,26.6,10.1,0000.0,0009.39,0004.25,0003.64
2022-12-07 18:59:00,,0826.5,5.00,0.00,24.8,23.6,00.0,33.5,26.6,10.0,0000.0,0008.85,0004.28,0003.65
